RH
43 44 42 43 42 40 44 44 54 60 60 65 60 56 54 49 49 50 54 55 54 52 49 50 49 45 41 38 44 50 52 58 68 75 71 61 50 45 43 44 47 47 47 48 52 56 57 57 58 63 69 71 73 74 75 76 78 78 78 80 79 79 80 80 81 80 75 63 50 45 49 53 55 55 53 51 45 37 30 23 19 22 26 21 28 49 57 64 77 73 65 66 61 56 54 51 50
41 42 40 41 39 42 60 63 63 67 64 65 59 53 49 46 49 49 54 57 59 58 56 55 49 43 38 36 39 41 42 45 55 65 65 57 47 41 38 41 48 52 53 52 54 57 57 59 60 65 70 72 73 73 75 78 81 82 83 83 81 81 82 83 83 82 76 63 50 46 52 54 56 55 52 48 38 30 22 17 15 13 21 28 34 42 54 68 73 69 67 65 54 47 50 53 56
40 40 38 38 42 44 60 70 65 60 55 55 54 52 48 48 51 51 55 52 53 57 58 56 48 42 39 39 41 41 42 41 43 52 57 50 41 39 41 42 44 50 56 56 56 57 58 61 62 65 71 72 72 71 74 80 84 87 87 86 85 85 85 86 86 83 74 60 50 49 53 55 56 54 49 41 31 23 17 15 12 14 25 30 41 55 65 69 66 70 68 62 53 51 57 58 58
39 39 38 37 50 55 58 69 66 60 54 47 44 46 48 49 53 57 60 52 47 48 48 47 44 42 42 43 44 42 40 39 40 44 50 46 40 44 48 49 48 50 57 61 59 58 59 62 63 66 70 70 70 69 75 82 86 89 89 89 89 89 89 89 88 83 72 57 49 51 54 56 56 51 44 35 25 19 13 14 13 21 28 27 50 63 58 57 63 69 62 52 47 52 61 57 49
39 39 40 37 52 67 68 70 65 62 59 50 43 44 50 51 55 58 58 55 48 45 43 44 44 45 48 50 50 48 44 41 40 42 46 45 45 51 55 56 53 52 59 64 62 61 60 62 64 66 69 69 68 71 78 83 87 90 91 92 91 91 90 90 88 81 71 57 49 52 55 55 54 47 39 30 23 16 11 12 12 17 17 19 36 36 35 47 53 52 45 43 44 48 50 43 36
40 37 40 39 47 60 66 69 63 60 58 53 48 45 50 54 57 57 56 56 50 43 41 42 43 47 52 56 58 57 53 50 47 46 48 49 54 60 61 60 56 54 61 68 66 64 62 63 65 67 69 70 70 74 80 85 89 92 95 95 93 93 92 91 86 78 68 55 51 53 54 54 50 43 35 27 20 14 9 9 8 7 7 9 14 12 22 31 30 30 31 37 38 33 25 23 23
42 40 50 55 56 58 62 65 58 54 51 49 48 45 48 55 57 55 56 55 50 45 40 41 43 46 50 51 56 58 59 60 56 56 60 62 67 68 65 63 61 59 63 72 70 67 66 65 66 68 70 71 71 76 83 87 91 94 97 97 96 96 95 91 83 74 61 51 51 53 54 52 47 41 33 25 18 12 8 6 6 5 5 6 8 9 14 14 15 17 20 25 19 13 9 8 12
43 43 55 63 60 60 62 63 57 51 47 44 45 47 48 55 58 57 56 47 41 42 41 44 45 48 52 49 51 57 62 63 60 65 72 73 73 71 69 68 67 65 67 75 76 72 71 70 69 69 71 71 71 74 81 86 89 94 98 99 98 99 96 89 81 69 54 47 50 53 54 51 46 40 30 22 15 10 7 5 4 4 4 5 7 8 8 8 11 11 12 13 9 7 6 5 8
44 42 48 57 56 53 55 56 55 51 48 44 44 46 48 53 56 54 51 44 43 42 42 47 50 53 54 50 50 57 61 62 65 69 73 76 78 78 78 77 76 73 73 80 81 78 76 75 74 72 74 74 74 76 81 85 88 93 97 99 99 100 95 86 78 62 48 48 52 54 53 51 47 37 26 18 13 8 5 4 4 4 4 5 6 7 6 7 8 9 8 7 7 8 8 8 8
46 48 48 55 58 56 54 50 47 46 46 44 41 42 46 52 53 49 40 47 64 56 45 47 52 54 52 50 49 55 57 58 64 67 71 76 79 80 82 82 80 78 79 82 84 83 81 81 79 76 78 79 78 80 85 88 91 94 97 99 100 100 93 86 76 55 46 50 53 55 54 53 45 31 21 14 10 7 4 4 4 4 5 5 6 7 7 7 7 8 8 7 8 8 8 9 9
45 50 51 53 56 55 52 47 43 42 41 39 38 39 45 49 49 47 34 41 66 55 39 42 49 52 51 51 49 51 54 56 59 63 71 75 76 77 78 78 76 76 79 82 84 85 83 83 81 76 80 84 83 83 88 92 94 96 98 99 100 97 91 87 71 51 48 53 55 57 56 52 41 26 17 12 8 6 4 4 4 4 5 6 7 7 7 7 7 7 8 8 8 9 9 9 9
47 48 50 54 57 53 48 44 42 40 38 37 38 40 45 48 47 50 42 42 53 43 32 37 41 47 52 51 48 49 53 56 57 62 68 69 69 70 73 75 74 75 76 78 78 78 78 77 77 76 80 86 87 86 89 92 95 96 98 99 95 92 90 78 57 48 53 56 58 59 58 50 35 23 15 10 7 5 4 4 4 5 6 6 7 8 8 8 9 8 8 9 9 9 8 9 10
51 52 50 51 52 49 47 45 43 41 38 38 39 42 46 49 53 55 48 42 45 40 34 35 34 41 49 48 45 45 49 50 50 59 66 63 63 66 73 76 74 74 73 73 73 74 75 72 71 72 78 85 88 90 92 95 98 98 98 96 91 90 83 62 48 51 56 58 61 61 57 46 31 21 14 9 7 5 4 4 4 5 6 7 8 8 9 9 9 9 9 9 9 9 9 9 9
55 53 52 52 51 49 47 46 45 43 41 40 39 43 48 51 54 52 46 39 42 43 36 35 36 39 44 43 41 41 47 47 47 57 59 56 61 66 71 72 71 71 70 71 73 74 74 72 70 69 72 80 85 89 93 94 95 97 97 95 93 88 69 50 49 56 59 61 62 60 53 40 28 19 13 9 6 5 4 4 4 5 6 7 9 9 10 10 9 9 10 10 10 10 10 9 9
54 49 51 52 52 51 49 46 44 43 40 40 42 47 49 50 48 45 45 41 44 45 38 37 37 39 42 41 37 39 51 52 50 56 57 57 60 63 64 67 72 70 66 66 69 73 73 72 71 70 71 75 79 81 85 87 90 95 97 96 89 73 53 47 54 59 61 63 63 60 50 36 24 16 13 9 6 6 5 5 4 5 7 8 9 10 10 10 10 10 10 10 10 10 10 10 10
52 49 53 54 54 52 49 46 43 42 39 38 43 48 47 48 48 46 46 43 43 42 38 38 37 39 41 42 39 40 52 55 54 58 58 58 57 59 62 66 71 70 66 62 63 67 70 72 71 71 70 71 74 75 76 80 87 92 95 91 75 54 46 51 57 61 62 63 63 59 49 33 20 14 11 9 7 6 5 5 5 6 6 7 8 9 9 10 10 10 10 10 9 10 9 9 9
64 57 53 53 52 49 48 45 42 40 36 36 39 43 44 47 48 47 47 44 42 41 39 38 37 39 39 40 39 38 45 51 57 61 59 56 55 59 62 64 68 68 66 62 60 60 63 68 70 70 70 69 71 71 74 80 86 89 91 80 57 44 47 54 60 62 62 63 64 60 49 32 19 13 10 8 7 7 6 6 6 6 6 6 7 7 8 8 9 9 9 9 9 9 9 9 8
71 64 58 52 47 45 44 42 41 38 34 34 36 38 42 45 49 50 47 44 44 45 42 40 38 38 38 38 38 37 39 44 54 63 62 57 57 61 64 66 67 65 63 61 60 61 62 64 65 66 68 69 68 69 73 82 87 86 82 66 49 46 51 57 61 61 61 64 65 62 50 32 19 13 10 9 8 8 8 8 7 7 7 7 7 7 8 8 9 9 9 10 9 9 9 9 8
66 64 61 53 47 44 42 41 41 39 34 35 36 39 43 44 49 53 48 43 45 48 46 43 41 39 39 38 38 37 37 39 47 59 62 57 58 65 68 69 68 65 64 62 61 61 62 63 63 63 64 66 66 67 69 73 77 75 69 59 52 52 55 59 60 59 60 64 66 63 52 36 21 13 11 10 10 10 10 10 10 9 9 9 9 9 9 9 10 10 10 10 10 10 10 11 11
61 60 58 51 46 43 41 40 40 39 36 39 40 42 46 46 49 53 50 44 44 50 49 46 44 42 41 39 39 38 36 37 40 48 56 58 60 65 68 69 70 69 67 65 63 60 59 61 63 63 63 63 63 64 65 64 65 64 62 59 56 55 56 58 58 59 60 63 66 64 56 39 23 14 12 11 11 12 12 12 12 12 12 12 12 11 11 11 11 11 11 11 12 12 12 12 12
57 57 54 49 45 42 40 39 40 40 40 41 43 46 46 45 47 52 54 45 41 50 53 53 51 45 43 42 41 39 37 36 35 36 42 52 60 65 69 72 72 70 69 67 64 60 56 53 54 57 58 59 61 62 63 63 63 61 58 57 56 55 56 57 57 59 59 62 65 64 58 43 26 17 13 12 12 13 13 14 14 14 14 13 13 13 12 12 12 13 12 13 13 13 12 11 10
55 56 54 49 45 43 42 41 40 39 40 41 44 47 44 40 41 49 56 45 38 48 54 57 56 50 48 47 44 42 41 39 37 35 34 40 52 61 68 73 73 70 70 70 67 65 60 52 46 49 53 53 55 57 59 62 62 59 58 57 57 57 57 57 57 58 58 59 62 62 58 45 30 20 15 14 14 14 14 15 15 15 15 14 14 14 14 13 13 13 13 12 12 11 10 8 7
51 52 54 52 48 44 43 45 43 39 40 41 45 46 42 43 43 46 51 41 36 45 49 54 55 54 54 51 49 47 45 42 39 38 36 37 43 51 59 68 73 73 74 73 70 69 66 61 56 56 58 54 53 54 56 57 58 58 58 60 60 58 57 56 56 56 56 56 59 60 56 46 33 24 18 15 15 15 16 16 17 16 16 16 15 15 14 14 13 12 11 10 9 8 7 6 5
48 48 49 48 50 48 44 46 50 49 46 45 46 44 40 44 42 41 45 45 44 41 41 50 52 51 52 50 51 51 50 48 44 42 40 39 41 44 48 57 67 74 75 72 71 71 69 66 66 65 62 59 56 56 57 56 57 59 60 60 59 56 53 53 54 54 53 53 56 59 57 48 36 28 21 17 16 17 18 18 18 18 17 17 16 15 14 13 12 10 9 8 7 6 5 5 4
47 48 47 44 49 50 45 44 48 52 53 52 47 42 41 40 39 38 39 47 55 50 44 48 50 47 48 49 50 52 52 52 50 47 44 41 41 42 44 49 60 70 73 71 74 77 74 71 68 65 61 59 57 55 55 56 58 60 59 57 55 52 50 51 52 52 50 51 56 61 59 51 40 31 23 19 18 19 20 20 20 20 18 17 16 14 13 11 10 8 7 6 6 5 5 5 4
45 49 49 47 49 50 49 48 48 50 52 52 46 44 45 44 46 39 33 45 58 58 52 48 47 46 47 49 49 51 52 52 52 51 48 45 42 43 46 50 61 71 75 77 79 77 75 76 72 64 57 54 52 49 48 51 56 59 57 54 52 50 48 49 51 50 49 51 58 60 56 49 38 30 24 20 20 21 22 22 21 20 18 16 15 13 11 9 8 7 6 6 5 5 5 5 5
47 50 50 51 51 48 48 48 47 48 49 50 50 50 46 49 54 40 36 51 53 49 48 46 46 45 46 47 48 49 51 51 52 51 50 47 45 44 46 51 61 70 73 72 69 64 63 67 66 59 54 51 49 46 45 48 53 57 57 54 51 48 48 48 49 48 49 52 56 55 50 43 35 28 24 22 22 23 24 24 22 20 18 15 13 11 9 8 7 6 6 6 5 5 5 5 5
51 53 52 52 53 51 49 49 51 52 53 52 52 51 45 46 47 37 41 52 47 45 45 44 43 42 45 48 49 50 50 51 51 52 50 46 44 43 48 55 61 64 63 59 54 49 48 49 49 48 48 49 47 46 46 48 52 58 60 56 52 49 48 46 47 48 48 50 52 50 47 42 35 29 25 23 23 24 25 25 23 21 17 14 11 9 7 7 6 6 5 5 6 6 6 6 6
57 56 56 54 55 56 53 53 55 55 55 52 49 49 43 37 35 33 39 44 45 48 46 44 44 42 44 47 48 49 49 50 50 50 48 44 41 42 48 54 57 57 54 52 49 45 43 42 42 43 43 44 44 44 46 48 54 61 64 62 56 51 48 47 47 46 45 48 49 48 46 42 36 30 26 25 25 26 26 26 24 20 17 13 9 7 6 6 5 6 6 6 6 7 7 7 7
61 59 60 59 61 59 53 55 55 51 51 49 48 48 40 33 37 38 39 42 46 48 46 45 45 43 45 45 46 46 47 48 48 48 46 43 43 42 45 47 47 46 45 44 43 42 43 43 44 44 45 46 44 43 45 51 58 64 67 66 60 55 51 48 45 44 45 48 47 47 45 40 35 30 27 27 27 28 28 27 24 19 16 11 8 6 6 6 6 6 7 7 7 7 8 8 8
63 66 66 63 62 56 52 55 52 48 48 45 46 46 36 33 41 39 36 41 44 45 46 45 44 45 45 45 46 47 47 47 44 43 43 42 42 41 42 43 43 42 41 41 41 43 46 47 48 49 51 50 47 45 47 55 63 67 72 72 67 62 56 51 48 48 48 46 45 45 43 39 35 31 29 28 29 30 30 28 24 20 15 10 7 6 6 6 6 7 7 8 8 8 8 8 8
68 73 72 65 61 56 53 52 48 49 48 42 42 43 38 39 45 43 40 43 44 44 45 45 45 45 45 45 46 47 48 46 42 40 39 39 39 39 40 40 40 41 42 43 45 47 49 50 50 52 56 54 51 49 49 57 65 70 79 80 75 69 63 58 54 50 46 43 43 44 42 39 36 32 30 30 31 31 32 29 25 20 14 9 7 6 6 6 7 8 8 9 9 9 9 9 9
73 72 69 64 62 59 56 52 47 47 46 42 43 45 43 44 47 46 45 46 46 47 46 45 45 44 44 45 44 47 48 45 42 38 37 37 36 36 37 39 41 42 44 44 42 42 43 44 45 51 58 58 54 50 50 56 65 73 83 85 81 74 66 59 52 45 42 42 44 44 42 40 37 34 31 31 32 33 33 30 25 20 13 8 7 6 6 7 8 8 9 9 9 9 9 9 9
73 68 63 61 60 58 56 54 49 46 45 44 45 48 48 48 49 48 48 50 50 50 48 47 46 46 47 47 46 47 48 48 47 45 43 43 42 42 42 44 44 43 41 36 29 27 29 32 39 52 59 58 55 51 50 56 64 74 82 84 82 75 64 55 47 43 42 43 44 44 43 41 37 35 33 33 34 34 35 31 26 19 11 8 7 6 7 7 8 9 10 10 10 10 10 10 10
69 67 66 65 63 60 58 59 60 53 47 47 47 49 49 49 51 51 51 51 51 52 53 52 51 50 49 49 49 49 49 51 52 53 53 53 53 52 48 45 41 37 33 28 21 18 19 25 38 52 56 53 51 48 48 53 59 66 74 80 79 72 62 53 48 44 43 43 45 45 43 41 38 36 35 35 35 36 36 32 26 18 10 7 7 7 8 8 9 10 10 11 10 10 11 11 11
68 68 70 71 70 66 62 65 69 64 60 61 60 60 57 55 59 63 61 59 59 60 59 58 57 57 56 56 55 54 53 54 56 59 60 60 60 59 54 49 46 41 34 27 21 18 18 24 34 43 46 45 45 44 44 47 49 55 67 75 75 70 63 55 49 45 43 44 45 45 43 41 39 37 36 37 37 38 38 33 26 17 9 7 7 7 8 9 10 11 11 11 11 11 11 11 12
75 74 74 76 77 75 69 69 73 70 68 65 60 65 63 54 58 62 58 55 59 62 63 63 62 61 60 60 59 59 60 58 58 59 59 58 57 57 52 49 54 54 41 28 22 21 20 22 26 30 32 34 36 38 40 42 45 53 66 72 71 69 64 55 48 45 44 45 45 44 43 41 39 38 38 38 39 40 40 35 25 15 8 7 7 8 9 10 10 11 11 11 11 12 12 12 12
74 75 72 72 73 70 64 63 66 65 62 53 49 59 54 37 38 44 41 38 37 38 44 49 56 60 58 57 59 60 59 52 46 47 48 46 43 40 34 36 53 59 44 29 24 24 23 22 24 25 25 26 28 30 36 42 48 57 66 70 69 66 61 52 46 45 45 45 45 45 44 42 40 39 39 40 40 41 42 38 27 15 8 7 7 8 9 10 11 11 11 12 12 12 12 12 12
67 67 64 65 65 62 58 56 56 56 57 52 51 55 45 28 28 36 38 35 26 21 22 26 39 53 51 50 53 52 47 39 34 34 34 33 30 28 25 28 45 52 41 30 29 29 28 27 26 27 26 26 27 28 34 42 48 56 63 68 68 63 57 52 48 47 46 46 46 45 44 43 41 40 41 41 41 42 43 41 31 18 9 7 8 9 10 11 11 11 12 12 12 12 13 13 13
58 55 56 59 57 56 56 53 50 49 51 50 48 47 41 32 31 33 33 31 27 26 27 26 34 46 44 41 43 42 42 37 31 28 27 27 26 25 25 25 33 40 37 33 33 33 33 32 32 31 31 30 30 30 34 42 49 56 62 66 64 59 54 51 48 47 46 45 45 45 45 43 41 41 41 42 43 43 44 44 37 21 10 7 8 9 11 11 11 12 12 12 12 12 13 13 13
50 49 51 54 52 52 52 50 47 45 45 43 42 46 43 36 38 37 32 31 33 34 33 31 32 39 40 36 33 35 40 38 28 23 23 23 23 23 24 25 29 34 36 36 36 36 36 35 35 36 35 33 32 32 36 43 49 53 58 59 56 52 50 48 46 45 44 44 45 46 45 44 42 41 42 42 44 45 46 46 42 28 12 7 8 9 10 12 12 12 12 12 13 13 13 14 14
46 48 49 48 47 48 47 48 48 47 47 41 43 58 56 42 41 40 33 32 33 32 32 31 31 32 33 31 29 29 34 36 27 21 22 22 22 22 22 23 27 31 34 34 34 34 35 35 35 36 37 36 34 35 38 43 47 49 51 52 51 48 46 46 45 45 45 46 47 47 46 45 43 41 42 43 44 45 47 48 47 37 19 8 8 9 10 12 13 13 13 12 12 13 13 13 14
46 47 48 45 43 42 43 46 47 47 48 41 43 59 60 44 39 38 35 34 32 32 32 32 32 31 31 32 31 29 30 33 28 22 22 23 23 24 24 24 25 28 30 31 31 31 33 33 33 34 36 38 37 37 39 41 44 46 47 48 47 45 43 44 45 46 47 48 48 48 47 46 44 42 42 43 44 45 47 48 49 46 30 12 8 9 10 12 14 14 13 13 12 13 13 13 14
47 47 48 46 43 43 44 46 50 50 48 47 44 49 54 46 37 36 38 38 36 36 34 32 33 33 34 33 29 25 25 28 27 24 22 23 24 25 25 26 26 29 31 31 31 31 33 34 33 33 35 39 39 39 39 40 42 43 44 45 44 43 43 45 46 47 47 48 48 48 47 46 45 44 43 43 43 44 46 48 49 50 41 22 9 9 10 11 14 15 14 14 14 13 13 13 13
48 47 48 48 47 47 45 46 52 52 50 53 47 44 53 51 38 37 40 36 35 35 32 32 32 32 33 32 30 28 27 27 25 24 23 22 23 24 25 26 26 27 29 30 32 34 36 36 35 34 36 39 41 41 40 40 41 42 42 43 44 44 45 46 47 48 48 48 48 48 48 47 46 45 44 43 44 44 45 47 48 51 49 35 16 8 10 11 13 15 15 15 15 15 15 14 14
48 49 49 48 49 48 46 48 51 53 56 58 51 45 51 51 40 39 41 35 33 32 30 30 30 30 32 33 33 30 27 26 25 24 24 22 22 23 25 26 26 27 27 29 32 35 38 37 35 34 36 40 42 42 42 41 42 43 43 43 44 44 46 47 48 48 48 47 47 48 48 48 47 46 45 44 44 44 45 46 47 49 51 46 30 14 9 10 13 14 15 16 16 15 16 16 16
47 50 50 49 50 47 50 53 52 59 64 57 50 45 48 52 45 40 39 35 32 32 30 30 29 29 29 29 28 26 24 24 24 24 24 23 23 23 25 26 27 28 28 29 31 33 35 34 33 34 38 42 42 42 42 42 42 43 43 43 43 44 46 47 48 47 47 47 47 48 49 48 48 48 47 46 45 45 45 46 47 48 50 51 44 29 16 11 11 13 15 15 15 15 16 17 17
44 50 51 52 50 45 50 54 52 62 65 51 44 42 45 52 46 36 35 33 31 32 31 30 30 29 27 25 24 24 24 23 23 23 23 23 23 23 24 24 25 27 29 31 33 34 35 35 36 38 40 41 41 41 40 40 40 41 42 43 43 45 46 47 48 48 48 47 47 48 49 48 48 48 47 47 46 46 46 46 47 47 49 51 50 43 30 18 12 12 13 14 15 15 15 16 17
40 45 49 58 58 52 55 53 50 57 55 44 40 40 43 46 41 35 34 31 30 32 32 32 30 29 28 25 24 26 25 23 23 22 22 22 23 23 23 23 24 25 27 29 32 34 35 36 38 39 39 40 40 39 38 38 38 39 41 43 44 45 46 46 47 48 48 46 45 47 47 48 49 49 49 48 47 47 47 47 47 47 48 49 50 49 42 31 20 15 13 13 13 14 14 15 16
45 44 48 60 63 65 66 56 51 53 46 39 37 41 46 42 35 33 30 27 27 27 30 31 29 28 29 26 25 27 26 24 24 21 19 20 21 22 22 23 24 25 27 29 30 32 33 34 35 35 35 36 35 32 31 30 29 30 34 37 40 41 41 40 40 42 44 42 39 40 41 43 46 49 50 50 49 49 49 48 48 47 47 48 49 50 48 41 32 24 19 15 14 14 14 15 15
54 52 52 53 51 59 63 55 56 57 48 41 38 42 45 37 30 29 26 25 25 24 26 28 28 28 30 30 29 28 26 25 23 19 16 17 19 21 20 20 20 20 20 21 21 21 22 22 21 20 20 21 21 20 18 18 18 19 22 25 29 31 30 30 30 32 34 34 33 32 33 35 38 43 48 51 52 51 51 50 50 49 48 48 49 50 50 48 41 34 28 22 18 17 15 15 16
52 55 56 54 47 48 51 50 50 52 52 48 42 41 38 31 29 27 26 27 27 27 27 27 28 28 30 31 30 28 25 23 21 17 14 15 15 15 13 12 11 11 11 10 10 10 10 10 9 8 9 9 10 10 10 10 11 11 12 14 18 20 21 21 22 24 25 27 30 30 29 30 32 35 38 43 49 51 52 52 52 52 51 50 51 51 51 50 48 42 36 29 24 22 19 17 19
45 50 54 54 50 47 48 51 45 45 56 52 40 40 37 33 32 27 26 29 28 28 28 26 27 27 28 29 28 26 24 21 18 15 12 12 12 11 10 9 8 8 8 7 8 8 7 7 7 7 7 7 7 7 7 8 8 8 8 9 11 12 14 15 16 19 20 22 25 26 26 26 27 28 30 33 40 45 49 52 53 54 54 54 53 53 53 53 52 49 44 37 30 27 24 21 21
39 45 49 48 49 48 47 55 55 55 63 51 36 38 37 34 35 29 26 28 27 27 26 25 25 24 25 28 27 25 22 19 16 13 11 11 11 10 8 7 7 6 7 6 6 6 6 6 6 7 7 7 7 7 7 8 7 8 8 8 9 10 11 12 13 15 16 17 18 19 21 22 23 25 26 26 29 33 39 45 49 53 55 56 56 56 56 55 55 53 50 44 37 32 28 24 23
36 40 43 42 47 49 47 56 64 66 68 56 40 38 36 34 34 30 28 29 27 27 25 25 25 23 25 26 26 25 22 17 13 11 11 11 10 9 7 7 8 8 9 9 7 6 6 7 7 7 8 8 8 8 8 9 9 9 9 10 11 12 12 13 14 15 16 16 16 17 18 19 20 22 22 21 21 22 25 30 36 42 49 54 57 58 58 58 58 57 54 50 43 38 33 28 27
41 41 42 43 46 47 45 49 54 58 65 62 52 45 39 34 30 27 28 27 25 26 24 24 25 24 25 26 26 25 21 16 12 10 11 10 8 7 6 7 9 11 14 14 12 9 8 8 9 9 9 9 9 10 10 11 11 11 12 12 13 14 14 15 15 16 17 17 18 19 19 20 20 21 22 21 20 19 19 21 24 30 38 46 52 56 58 60 61 60 58 56 52 48 42 36 35
46 47 46 47 48 46 47 47 44 47 58 61 61 57 43 33 31 29 30 30 29 29 26 25 25 23 23 24 24 23 19 14 12 11 11 10 9 8 7 8 9 11 14 16 17 15 11 10 11 12 12 12 12 12 12 12 13 13 13 13 14 14 15 15 16 16 16 17 17 18 18 18 18 18 19 19 18 17 17 18 19 22 29 38 45 49 53 58 62 64 64 63 61 58 54 49 46
46 49 48 47 48 49 56 60 47 43 51 54 60 63 48 35 35 34 34 35 33 30 28 26 25 24 23 24 23 21 17 14 12 12 12 12 10 9 8 8 10 11 14 17 20 20 16 13 13 14 14 14 14 14 14 15 15 15 15 15 16 16 16 17 17 17 17 17 18 18 18 18 18 18 18 18 17 17 17 17 17 17 21 29 36 42 47 52 57 62 66 67 67 66 63 60 57
Wind_Speed
12 11 11 11 11 10 10 9 8 10 12 15 16 17 17 15 17 16 13 16 18 20 21 19 18 18 17 16 15 16 17 17 18 19 18 16 15 15 15 14 13 14 16 19 21 21 21 21 20 19 20 21 21 21 20 20 19 18 17 17 16 16 16 16 16 15 14 13 13 14 15 15 16 17 17 18 18 19 18 17 17 16 16 15 14 12 12 12 13 17 18 18 19 19 20 20 21
11 11 10 10 10 9 8 8 8 11 14 15 16 17 17 15 16 16 16 14 13 15 18 18 18 19 19 19 18 19 19 20 19 21 21 19 18 18 19 19 16 15 15 17 20 22 22 21 21 20 21 22 22 21 21 20 19 18 18 17 17 17 17 17 16 15 15 14 14 15 16 17 17 18 19 19 19 19 19 17 16 16 15 13 13 13 13 13 15 18 18 20 21 21 20 20 21
10 10 10 8 8 8 7 8 10 12 15 16 16 15 15 14 11 13 17 16 14 14 15 17 18 18 18 19 20 20 21 21 20 22 23 23 21 20 22 22 20 18 17 17 19 21 22 21 21 21 21 22 22 21 21 20 19 19 19 18 18 17 17 17 17 16 15 15 16 16 16 18 18 19 19 19 19 19 18 16 15 15 13 12 11 12 12 13 16 16 17 19 20 20 20 20 21
10 9 9 7 5 8 8 10 13 14 17 16 15 14 14 15 13 12 12 13 16 17 17 18 17 16 16 18 19 20 22 21 21 22 23 22 20 20 22 23 22 21 20 19 19 20 21 22 22 21 22 22 22 20 20 20 19 20 20 20 19 18 18 17 17 16 16 16 16 17 17 18 19 20 20 20 19 18 17 15 15 13 12 12 10 12 14 16 16 16 17 18 19 19 20 20 22
9 8 8 6 4 8 10 12 15 16 18 16 15 14 12 15 17 15 14 14 16 16 16 15 14 13 14 16 17 19 20 20 21 21 22 21 20 21 22 23 23 22 21 20 20 21 21 22 22 21 22 21 20 19 20 20 20 21 21 21 20 19 18 18 17 17 17 17 17 17 18 19 20 20 20 20 19 19 18 15 15 14 13 14 14 16 17 18 18 18 20 20 20 20 20 21 21
9 8 7 6 6 10 12 13 16 19 19 17 17 16 12 14 17 16 17 19 18 17 15 15 15 13 15 14 15 16 16 18 19 19 20 19 20 22 23 23 23 23 22 21 21 21 22 22 22 21 21 20 19 19 20 21 22 22 22 21 20 19 19 18 17 17 17 18 18 18 19 20 20 21 21 20 19 19 18 18 17 16 16 17 18 18 18 19 19 20 21 20 21 21 21 20 20
7 5 5 5 7 11 14 15 18 20 19 18 18 17 15 15 16 17 17 17 18 19 18 17 16 16 17 15 14 15 14 16 16 14 17 18 19 21 22 23 24 25 23 21 21 21 21 22 21 20 20 20 20 20 21 22 23 23 23 22 20 19 19 18 17 17 18 18 18 19 20 20 21 21 21 20 19 19 19 19 19 18 17 18 18 18 18 20 20 20 21 21 22 22 21 19 19
7 5 3 7 11 13 15 18 19 20 19 18 17 17 17 17 18 20 19 19 19 19 19 17 16 17 18 17 15 14 14 15 14 12 14 17 18 19 20 22 24 25 24 22 21 21 21 21 21 20 20 21 21 21 22 23 24 23 22 22 21 20 19 19 18 18 18 18 18 20 20 21 21 21 21 21 20 19 18 19 19 18 18 18 18 18 18 19 19 20 21 21 22 22 20 19 19
9 9 6 9 13 15 17 19 19 19 20 19 18 18 18 19 21 21 19 20 20 19 18 16 15 17 18 18 17 15 14 13 13 13 14 16 16 18 19 20 22 24 23 22 22 23 22 22 23 22 21 21 21 21 22 23 23 23 23 23 21 20 20 19 18 18 18 18 19 20 21 21 22 22 21 21 20 19 18 18 19 18 18 18 18 19 19 18 19 20 21 21 21 20 20 19 19
9 10 10 10 13 16 18 19 19 18 19 19 19 18 16 19 21 19 15 14 17 18 16 14 15 17 18 18 18 16 15 14 14 14 14 15 16 17 18 19 22 22 22 22 22 23 24 25 25 23 21 20 20 21 22 24 24 23 23 23 22 21 20 20 20 19 18 19 20 21 22 22 22 22 22 21 20 19 19 18 19 19 19 19 19 19 19 19 18 19 20 20 20 20 19 19 19
11 9 11 14 14 16 18 18 18 18 17 16 16 17 18 21 22 19 16 12 14 18 16 14 15 16 18 19 18 16 16 16 15 14 15 16 16 17 18 20 21 22 22 22 22 22 23 25 24 21 21 20 20 21 23 24 24 23 23 23 23 22 21 22 22 20 19 20 21 22 23 23 23 23 22 21 20 19 19 19 19 19 19 19 19 19 19 19 19 19 19 19 19 19 19 19 19
13 10 11 16 16 16 19 19 19 19 18 16 15 15 17 21 22 19 16 14 16 20 17 14 16 16 18 18 16 14 15 16 14 14 16 17 17 17 18 19 20 21 21 21 20 21 21 22 22 20 19 19 20 21 22 24 23 23 24 24 23 23 23 23 22 20 20 21 22 22 23 24 23 22 22 21 20 20 19 19 19 20 20 19 19 20 19 19 19 19 19 19 19 19 19 19 18
12 11 12 17 18 18 19 20 20 20 18 17 17 18 17 16 15 14 16 18 18 21 19 16 17 16 18 19 15 13 15 17 15 14 17 18 18 17 18 19 20 21 21 21 20 20 20 21 22 21 19 20 20 21 22 22 22 22 23 23 23 23 23 23 22 21 21 22 22 23 24 23 23 22 21 21 21 20 20 20 20 20 20 20 20 20 20 20 20 20 19 19 19 19 19 19 19
13 11 14 17 19 20 19 20 19 19 17 16 20 22 21 16 12 12 16 18 18 21 20 18 18 17 19 19 16 13 15 17 14 14 18 17 17 18 19 20 21 21 22 22 21 21 21 21 22 23 22 20 19 20 21 21 21 21 22 23 23 24 23 23 22 22 22 22 23 24 24 23 22 21 20 20 20 20 20 20 21 21 21 20 20 20 20 21 21 20 20 20 20 20 20 20 20
18 15 16 19 20 20 19 19 19 20 18 16 21 22 19 18 17 17 18 19 19 20 19 18 18 18 19 19 16 12 12 15 13 14 16 15 16 18 19 20 21 21 22 21 21 21 21 20 21 22 23 21 19 20 21 21 22 22 23 23 24 24 24 23 23 22 22 22 23 23 23 22 21 21 20 20 19 19 20 20 21 21 21 22 21 21 21 22 21 21 21 21 21 21 21 21 21
22 20 19 19 20 20 20 19 19 22 19 16 21 21 17 19 20 21 22 21 20 19 18 18 17 18 19 18 17 13 14 15 14 15 15 15 15 15 16 18 21 22 22 22 21 22 21 20 21 21 21 21 20 20 21 22 22 23 24 24 24 24 24 23 22 23 23 23 23 23 22 21 20 20 20 20 19 19 19 20 20 21 22 22 23 23 23 23 22 22 22 22 22 22 22 22 22
18 20 21 22 23 22 20 19 20 22 18 17 20 19 18 20 22 24 24 22 21 21 20 19 17 18 18 17 17 16 17 17 16 16 15 15 14 14 16 17 20 22 23 23 22 22 22 21 22 22 21 21 20 20 21 22 23 23 24 24 24 24 24 23 23 24 23 23 23 23 22 21 20 19 19 19 19 19 19 20 20 21 21 22 23 23 23 23 23 23 23 23 22 22 23 22 22
17 19 21 25 25 23 21 20 21 21 19 19 19 18 18 21 24 25 25 23 23 24 23 22 20 20 19 18 18 17 17 18 17 17 16 16 15 15 16 18 20 21 22 23 23 22 21 21 22 22 22 23 22 21 21 21 22 22 23 24 25 25 25 24 24 24 23 23 23 23 22 21 20 19 19 19 19 19 19 19 20 20 21 21 22 22 22 23 22 23 22 22 22 22 22 21 20
20 20 23 27 25 22 21 20 21 22 21 21 21 20 19 19 22 23 25 23 23 25 24 24 23 21 21 20 19 18 18 19 18 18 18 17 17 17 18 20 21 22 22 22 22 22 21 21 21 22 22 23 23 22 22 22 22 23 24 25 26 26 26 26 25 25 24 23 23 23 23 22 21 20 19 19 19 19 19 19 19 20 20 20 21 21 21 22 22 22 22 22 21 21 20 18 17
20 21 27 29 24 22 21 21 22 24 23 23 23 24 23 20 19 23 26 23 23 25 26 25 24 22 22 22 21 19 20 20 20 20 20 20 20 21 21 22 22 23 24 24 23 23 22 21 21 21 22 23 23 23 23 23 23 24 26 26 27 27 27 26 26 26 25 24 24 24 23 22 21 21 20 20 19 19 19 19 20 20 20 21 21 21 21 21 21 21 21 21 20 19 18 17 17
21 23 29 27 21 22 22 21 21 22 22 23 24 24 24 22 20 23 26 26 24 21 21 22 22 23 23 22 21 20 20 21 21 22 22 23 23 24 24 24 24 24 25 26 25 24 23 22 21 20 20 22 22 22 23 23 24 26 27 27 27 28 27 27 27 26 26 25 25 24 23 22 22 21 21 21 20 20 20 20 20 20 21 21 21 21 21 21 20 20 20 20 19 19 18 17 17
24 26 28 26 22 23 23 21 22 23 24 26 27 27 28 27 25 23 25 30 27 20 18 18 20 25 26 22 22 22 22 22 22 22 23 24 25 26 27 27 27 27 27 27 27 26 25 24 23 22 21 22 23 23 23 24 25 26 27 28 28 28 28 28 28 27 27 26 25 24 23 23 22 22 22 22 22 21 21 21 21 21 21 21 20 20 20 20 20 20 19 19 19 18 18 17 17
26 30 28 27 25 24 24 22 24 27 28 31 31 32 31 28 26 24 28 33 30 26 24 22 23 27 29 26 25 25 25 25 23 23 23 24 26 27 28 29 29 29 28 28 28 27 26 26 27 27 26 26 26 26 26 26 27 27 28 29 30 30 30 29 29 29 28 26 25 24 23 23 23 23 23 23 23 22 22 21 21 21 21 20 20 20 20 19 19 19 19 18 18 18 17 17 17
27 31 28 26 25 24 22 21 24 27 30 33 33 34 33 30 30 29 32 32 30 32 29 25 26 28 30 29 27 27 27 27 26 25 25 26 27 28 29 30 30 30 29 29 28 27 27 27 28 28 28 28 28 28 28 29 28 29 30 31 31 31 31 30 30 30 28 27 25 25 25 24 24 24 24 23 23 23 22 22 21 21 20 20 20 20 19 19 19 18 18 18 18 18 17 17 17
28 31 28 27 29 27 25 24 25 28 31 34 35 35 35 34 33 34 37 32 29 34 32 27 27 29 31 30 28 28 28 28 28 28 28 28 28 28 29 29 30 29 29 28 28 28 28 28 28 28 28 28 28 28 29 29 29 31 32 32 32 32 32 32 31 30 28 27 27 27 26 25 25 25 24 24 24 23 22 21 21 20 20 20 20 20 19 19 19 18 18 18 17 17 17 16 16
27 27 25 26 27 25 25 24 25 28 30 33 35 36 35 32 32 38 41 35 31 34 34 29 29 30 31 31 30 29 29 29 29 30 29 30 29 29 29 29 29 28 28 29 29 29 30 29 30 29 28 28 28 28 29 29 31 33 33 33 33 33 33 33 32 31 29 28 28 28 27 26 25 25 25 25 24 23 22 22 21 20 20 20 20 20 19 19 18 18 17 17 16 16 16 15 15
25 22 23 24 24 24 25 24 24 27 30 31 32 36 36 31 34 42 41 34 33 34 35 32 31 32 31 31 30 28 29 29 30 30 30 31 30 30 29 29 29 28 28 29 30 30 30 29 30 30 29 29 29 30 30 30 32 33 34 35 35 35 34 34 32 31 30 29 29 28 27 25 25 25 25 25 25 24 23 22 21 21 20 20 20 19 18 18 17 17 16 16 16 15 15 15 14
25 24 28 30 28 30 33 34 31 30 32 31 30 35 37 35 39 45 41 35 35 37 37 35 33 33 32 32 31 30 30 30 30 31 30 30 29 29 28 29 29 29 29 30 30 29 29 29 30 31 30 31 31 32 32 32 33 34 35 36 36 36 35 34 32 31 30 30 29 28 27 26 25 26 26 25 25 24 23 23 22 21 20 20 19 18 17 17 16 16 16 16 15 15 15 15 15
24 25 30 35 33 36 40 37 33 30 32 31 26 29 38 42 43 43 37 30 30 32 33 33 33 32 31 31 31 31 30 30 31 30 29 28 28 28 27 29 30 31 32 32 31 30 29 30 31 32 31 32 33 34 34 35 35 35 36 37 37 37 36 34 32 31 31 30 29 28 27 26 26 26 26 26 25 24 24 23 22 21 20 19 18 18 17 17 16 16 16 16 16 16 16 15 15
22 22 26 32 31 37 39 31 28 28 29 31 25 26 40 43 34 31 29 25 25 26 26 28 30 28 28 29 28 29 29 30 31 29 30 30 29 29 30 32 33 34 35 35 34 32 31 33 34 34 33 34 36 36 37 37 36 36 37 37 37 37 35 34 32 31 31 30 30 29 27 26 26 26 26 26 25 25 24 23 22 21 20 20 19 18 18 17 17 17 17 16 16 16 16 16 15
25 23 26 30 30 37 35 24 24 26 25 29 27 28 44 44 29 28 30 27 28 28 27 29 30 29 30 32 32 32 30 29 30 30 31 32 32 32 34 36 36 37 38 38 36 35 35 36 37 37 36 37 38 38 38 38 37 37 37 37 37 36 35 33 32 32 31 30 30 28 27 26 26 26 26 26 26 25 24 23 22 21 21 21 20 19 19 18 18 18 17 17 16 16 16 16 15
28 25 27 28 28 35 31 20 22 27 24 26 26 29 44 41 25 24 26 25 28 30 31 32 34 35 34 35 35 33 31 30 30 31 32 32 33 35 36 38 38 39 40 39 38 37 37 38 39 38 38 39 39 39 39 38 38 38 37 37 37 36 35 34 33 33 32 30 29 28 26 26 26 26 27 27 26 25 24 23 23 22 22 21 21 20 20 19 19 18 18 17 17 16 16 16 16
26 23 28 29 28 32 30 21 19 22 22 24 25 29 37 32 18 19 25 26 28 29 29 30 32 34 33 34 34 32 31 31 31 31 31 32 34 37 38 39 39 40 40 40 38 38 38 39 40 38 37 39 39 40 40 39 39 38 37 37 36 36 35 35 33 32 31 30 29 27 27 27 27 27 27 28 27 26 25 24 23 23 23 22 22 21 21 20 19 19 18 18 18 17 17 16 16
22 21 28 30 27 28 29 23 19 18 18 20 22 25 33 32 24 27 33 32 31 31 31 31 32 35 34 34 33 32 31 31 32 31 30 32 36 39 40 40 40 39 40 39 38 38 39 40 40 38 37 38 39 39 39 39 38 38 37 37 36 36 36 34 33 32 31 30 29 28 28 28 28 28 28 28 27 26 25 24 24 24 24 24 23 22 21 21 20 20 19 19 18 18 17 17 17
16 17 22 26 25 26 28 21 15 16 17 20 22 25 32 34 28 27 31 31 30 31 32 32 33 35 36 36 36 36 36 38 39 37 35 37 40 41 40 38 38 38 39 39 38 38 38 39 39 37 38 38 38 39 38 38 38 38 37 36 36 36 35 33 32 32 31 30 29 28 28 28 28 28 28 28 27 26 25 24 25 25 25 25 24 23 22 21 21 20 20 19 19 18 18 18 18
18 20 22 24 26 29 31 23 19 21 24 27 29 32 37 42 38 33 33 33 33 35 35 35 36 36 37 40 42 43 43 44 43 40 39 41 43 42 41 40 39 39 40 40 39 38 37 38 38 38 38 38 38 39 38 38 38 38 36 36 35 34 33 32 32 32 31 30 29 29 29 28 27 27 28 27 26 26 25 25 26 26 26 25 25 24 23 22 22 21 21 21 20 20 19 19 19
26 29 28 29 32 34 36 31 29 30 31 35 37 37 41 47 46 40 38 39 40 41 40 40 40 39 39 42 46 48 46 42 39 38 39 40 42 42 42 42 43 42 41 40 39 38 37 37 37 37 38 38 38 39 38 38 37 36 35 34 33 32 32 32 32 31 31 30 30 30 29 28 27 27 27 27 26 26 26 26 26 27 27 26 26 25 24 24 23 23 23 22 22 21 21 21 20
24 25 26 28 30 32 33 26 25 26 29 35 35 34 38 45 44 38 36 37 40 42 42 42 42 40 40 41 44 46 44 38 35 37 38 38 38 39 39 40 42 42 40 39 38 37 37 37 36 36 36 37 38 38 37 37 35 34 33 32 32 32 32 32 31 31 32 32 31 31 30 29 28 27 27 27 27 27 26 26 27 28 28 28 27 26 25 25 25 24 24 24 23 22 22 22 22
21 21 21 24 24 24 24 19 17 21 25 30 30 29 36 43 42 38 35 36 38 39 38 37 38 40 39 38 40 41 39 37 37 37 37 37 37 37 36 36 38 38 38 38 38 37 37 37 36 35 35 36 37 37 36 35 34 33 33 32 32 33 33 32 32 33 34 33 32 31 30 28 28 28 27 28 28 28 27 27 28 29 29 29 28 27 27 26 26 26 25 25 25 24 24 24 25
23 23 23 25 23 20 21 18 14 18 23 28 29 30 37 42 42 38 31 29 30 27 24 25 30 36 36 34 35 37 37 38 39 38 36 35 36 36 36 35 34 35 36 38 37 36 36 36 35 34 34 35 35 35 34 34 34 34 33 32 33 34 34 34 34 35 34 33 32 31 29 28 28 28 28 29 29 29 28 28 28 29 29 29 29 28 28 27 28 27 27 26 26 26 26 26 27
22 23 25 26 24 21 23 22 18 20 24 27 29 29 35 38 34 28 22 18 19 17 16 19 22 29 31 29 29 30 32 35 37 37 36 36 36 35 35 35 34 34 35 36 35 34 35 36 35 33 32 33 34 34 34 34 34 34 33 33 35 36 36 35 35 35 33 31 30 29 29 28 28 29 29 30 29 29 29 28 29 29 30 30 30 29 29 29 29 29 28 28 28 28 28 28 28
21 21 21 22 22 21 22 20 18 20 22 22 21 18 22 28 26 23 23 21 22 23 23 22 21 22 26 27 27 27 28 32 34 33 32 32 34 35 35 35 35 36 37 37 36 35 36 37 35 33 32 33 33 33 33 32 33 33 34 34 35 36 36 35 33 32 31 29 29 29 29 30 30 31 31 30 29 29 29 29 29 30 30 30 30 30 30 30 30 30 30 30 30 30 30 30 29
22 20 18 18 19 19 19 17 15 17 19 19 18 13 15 28 34 32 29 28 27 27 26 27 25 23 25 28 29 29 28 32 34 34 32 31 30 32 34 35 36 37 38 38 38 38 38 37 35 34 33 33 34 33 32 32 32 33 34 34 35 35 35 34 32 31 31 30 31 31 32 31 32 33 32 30 29 29 29 29 29 30 30 30 31 31 31 31 31 31 31 31 31 31 32 31 30
21 19 18 18 20 20 19 17 17 19 22 25 25 21 16 27 41 34 24 26 25 23 24 26 25 24 27 29 29 27 25 27 29 30 32 32 30 29 28 30 32 35 37 38 38 38 37 36 35 34 33 33 34 34 33 32 32 33 34 34 35 36 35 34 32 32 33 33 33 33 33 33 34 35 34 31 30 30 29 29 30 30 31 31 32 32 32 32 32 32 32 32 32 33 33 33 33
20 20 19 19 20 22 21 20 21 20 21 25 25 19 12 22 40 33 21 24 21 19 21 22 24 25 28 30 27 25 24 23 23 22 24 27 27 27 25 25 26 29 33 37 38 37 36 35 34 34 33 34 34 34 34 33 33 34 35 35 35 35 35 34 33 33 34 35 34 33 34 34 35 36 35 32 31 31 30 30 30 31 32 32 33 33 34 34 33 33 33 33 33 33 33 34 34
20 21 22 23 21 23 23 21 22 19 17 22 23 17 9 17 37 32 20 21 20 19 20 18 22 24 27 27 22 19 17 16 16 15 17 19 20 21 22 24 24 24 27 32 37 38 36 35 34 34 33 33 33 33 33 33 33 34 34 35 35 35 34 34 34 34 35 36 35 34 34 35 35 36 35 34 33 32 32 32 32 32 32 33 34 34 35 35 35 35 34 34 34 34 34 34 35
24 24 23 24 22 22 21 18 20 14 12 20 23 21 14 14 27 27 17 16 17 18 17 16 20 21 21 20 16 12 9 9 10 9 10 12 13 14 16 19 21 21 22 24 29 32 33 33 33 32 32 32 32 32 32 32 32 33 33 34 34 34 34 34 34 35 35 36 35 34 34 35 36 36 36 36 34 34 33 34 34 33 34 34 35 35 36 36 37 37 36 35 35 35 35 35 35
24 24 22 19 15 15 17 17 17 9 8 19 22 20 18 15 19 20 14 11 12 15 17 19 22 22 20 14 9 9 10 10 10 10 10 10 10 10 11 14 15 16 17 18 21 24 26 28 28 29 29 29 30 30 30 30 30 30 31 32 32 32 33 33 33 34 34 35 34 34 34 35 36 37 37 37 36 35 34 35 36 35 36 36 36 37 37 38 38 38 38 37 37 37 37 37 37
23 22 18 11 6 7 9 9 9 7 11 20 17 12 14 19 26 27 22 20 20 22 24 25 27 27 21 14 10 13 13 13 13 13 13 13 12 12 11 12 12 12 13 14 16 18 20 22 23 24 25 25 26 27 27 27 27 27 27 29 29 30 31 31 31 32 33 34 34 34 33 34 36 37 37 37 36 35 36 37 37 37 38 38 38 39 39 40 40 40 40 39 39 39 38 38 39
15 17 16 11 3 3 5 5 5 7 11 13 10 8 9 16 22 20 16 17 17 19 22 23 26 27 22 19 18 19 14 14 15 14 14 13 13 13 13 12 12 12 12 13 14 16 17 18 19 20 21 21 23 24 24 24 24 24 24 26 27 28 29 29 30 30 31 33 33 33 33 33 35 36 37 36 36 37 38 38 39 40 40 40 41 41 41 41 42 41 41 41 41 40 40 40 40
8 10 12 14 12 7 4 4 3 4 8 10 4 4 3 7 10 11 13 16 15 14 15 18 22 25 25 25 25 21 14 13 15 14 13 11 11 11 10 10 10 10 11 11 12 13 14 15 15 16 17 18 20 21 21 22 22 22 23 24 25 26 27 27 28 29 29 31 32 33 33 33 34 35 36 36 36 38 39 40 41 41 42 42 43 43 43 44 44 44 43 43 42 42 42 41 41
10 10 13 16 18 15 11 11 11 11 12 10 8 9 12 16 19 20 21 26 24 19 18 20 21 24 26 26 23 19 15 14 14 14 12 10 9 8 7 7 7 8 8 9 10 11 13 14 15 16 16 18 19 20 21 22 22 22 23 23 23 24 25 26 26 27 27 28 30 32 33 33 33 34 35 35 36 38 40 41 42 42 42 43 44 45 46 46 46 46 45 45 44 44 44 44 43
10 12 17 18 17 16 13 12 16 15 11 9 10 15 21 23 21 14 11 18 22 20 19 19 19 23 25 24 21 18 15 14 13 13 12 10 9 8 7 6 6 8 9 11 12 13 14 16 17 18 19 20 21 22 22 23 24 24 24 24 23 24 25 25 26 26 27 27 29 31 33 33 33 34 34 35 35 37 39 41 42 43 43 44 46 47 47 48 48 49 48 47 47 47 47 46 45
13 12 15 15 14 16 14 8 6 7 7 8 11 16 18 15 12 10 12 16 16 16 16 15 16 20 22 21 20 17 15 14 13 13 12 11 10 9 9 8 8 9 11 13 15 16 17 18 19 20 21 22 23 23 24 24 25 25 25 25 25 25 25 25 26 26 27 28 29 30 31 32 33 33 34 35 35 36 37 39 40 41 43 44 46 48 49 49 50 51 51 50 50 50 50 49 48
19 19 17 13 9 10 12 8 3 4 5 6 9 15 17 15 12 13 16 16 14 15 16 13 14 17 17 17 17 16 15 14 14 14 13 13 13 12 12 11 11 11 13 14 16 18 19 20 21 22 23 23 24 25 25 25 25 26 26 26 26 26 26 26 27 27 28 29 30 30 31 32 32 33 34 35 35 36 37 37 38 38 40 42 45 48 49 51 52 52 53 53 53 53 53 53 52
20 23 23 19 15 12 12 10 6 5 5 5 7 8 8 10 11 12 11 8 8 12 13 13 16 16 15 15 16 16 16 15 15 15 15 16 16 16 15 15 15 16 18 19 20 21 21 21 22 22 23 24 24 25 25 25 25 26 26 26 26 27 27 27 28 29 30 30 30 31 31 32 33 34 35 36 37 37 38 38 38 38 38 41 43 46 48 50 52 53 54 54 55 55 55 55 55
20 22 23 23 21 19 15 16 16 12 6 4 5 6 8 11 11 11 11 10 12 14 15 18 20 16 13 13 15 16 17 17 18 18 18 19 19 20 19 19 19 21 22 23 25 26 24 22 22 22 23 23 23 24 24 24 25 25 25 25 26 26 27 28 28 29 30 30 30 31 32 33 34 35 37 38 39 40 40 41 41 40 40 41 43 44 46 48 50 52 53 54 55 56 57 57 57
19 20 21 20 22 20 12 10 17 19 14 8 6 7 10 14 15 16 19 20 20 20 19 21 20 14 11 12 14 17 19 19 21 21 21 22 22 23 23 22 23 24 24 25 26 28 27 24 24 23 23 23 23 23 24 24 24 24 25 25 26 26 27 28 29 29 30 30 31 32 32 34 35 37 38 40 41 42 43 44 45 45 44 43 44 45 46 47 49 50 51 53 54 55 56 57 58
Wind_Direction
259 259 262 262 263 267 269 266 257 253 242 241 247 249 255 255 248 248 254 249 242 244 242 244 250 244 245 253 247 240 235 229 227 228 239 254 263 272 278 278 275 271 259 249 247 243 239 236 234 231 230 232 233 235 238 241 243 245 247 249 250 251 252 255 257 260 265 269 271 273 275 280 286 292 297 299 300 300 299 299 296 290 288 285 277 270 265 261 255 255 257 259 261 260 262 266 270
262 261 263 261 264 261 255 256 247 250 247 242 246 247 253 256 246 240 241 244 249 253 252 249 251 250 248 251 252 248 245 241 237 238 246 257 264 269 269 267 266 268 262 250 247 245 242 239 236 232 230 232 233 235 237 241 244 247 248 248 249 248 250 253 256 260 266 270 271 273 278 284 290 295 299 301 303 302 300 299 294 289 286 281 276 270 262 254 251 255 257 258 261 264 267 270 273
263 265 266 267 266 253 241 247 247 250 251 246 248 248 247 254 244 230 233 241 249 252 253 256 257 257 253 249 247 247 248 248 246 243 246 255 264 268 266 264 262 262 262 256 249 245 244 241 237 233 230 231 234 236 237 240 244 247 249 249 249 248 249 253 256 260 267 270 272 275 281 287 292 296 299 301 302 301 299 297 290 286 280 276 271 261 254 253 254 255 257 260 262 264 267 268 270
263 269 273 274 258 252 251 244 246 251 255 256 258 254 244 254 256 239 237 242 246 251 255 261 261 258 255 249 247 250 251 251 251 248 249 256 265 267 265 263 260 258 258 258 252 245 240 239 236 233 230 231 234 238 239 240 242 245 246 248 249 249 251 253 257 261 266 269 272 278 283 288 293 297 299 300 299 297 295 291 285 279 275 272 256 248 253 255 254 254 258 264 266 265 266 268 270
260 262 270 272 238 242 249 245 245 246 251 258 261 261 251 250 254 250 250 251 251 255 257 260 261 258 255 253 253 255 256 256 255 253 253 257 261 261 262 260 258 256 255 255 253 246 237 235 234 231 230 232 234 238 240 240 241 242 243 245 246 248 250 252 256 261 266 268 272 278 283 288 293 296 298 298 297 294 290 283 278 273 268 263 253 253 256 256 256 259 262 264 264 264 266 269 270
261 263 272 269 239 237 240 244 248 245 247 252 257 265 261 249 251 254 254 257 261 261 261 263 264 263 260 260 260 260 262 262 259 255 256 258 257 257 259 258 257 255 253 252 250 247 238 233 232 230 230 232 234 236 237 239 240 241 243 244 245 246 249 251 255 261 265 269 274 279 284 288 292 295 296 296 295 291 287 281 276 271 265 261 259 260 258 258 260 262 264 265 266 267 270 271 270
273 283 308 291 266 261 252 248 249 250 252 251 251 257 259 262 267 264 262 265 266 262 264 264 263 266 266 264 263 265 266 264 264 260 258 256 253 252 253 253 254 253 253 250 245 245 241 235 234 233 232 232 233 233 233 236 238 241 243 246 247 247 249 251 255 260 265 270 275 280 284 289 293 295 295 294 291 287 284 280 277 272 268 265 264 262 259 261 263 263 265 267 271 275 277 276 275
276 270 263 260 260 265 261 256 253 253 256 254 252 253 256 271 278 274 277 282 274 264 263 263 261 264 266 265 266 268 266 265 268 261 254 253 251 250 249 249 250 251 253 252 245 243 245 242 239 237 233 234 234 234 234 236 239 241 244 247 248 248 250 253 258 261 265 271 277 281 285 289 293 294 293 290 286 283 280 277 275 273 269 268 267 266 264 263 266 268 270 272 275 279 281 281 279
280 279 265 254 260 263 258 257 257 258 259 258 259 259 259 265 270 274 280 284 281 270 261 261 261 262 265 266 266 265 265 267 266 261 256 255 254 253 251 250 249 250 252 253 248 243 244 245 244 242 236 235 237 236 236 238 239 241 244 248 249 249 251 255 259 262 267 273 279 283 286 290 292 292 290 287 284 281 276 272 271 269 267 266 265 266 266 265 267 269 272 274 276 277 279 280 281
282 290 289 271 268 273 267 262 260 261 262 261 259 258 259 263 269 274 278 279 278 272 265 265 264 264 265 264 263 263 265 266 263 263 261 260 258 255 253 250 249 250 250 252 250 246 245 245 250 252 245 239 239 239 238 239 240 242 245 249 251 251 252 257 259 262 267 274 279 283 288 292 293 291 289 286 283 279 274 270 267 266 264 264 263 263 264 264 264 265 268 271 273 275 276 278 279
277 278 283 272 264 267 267 265 263 262 263 265 263 258 255 260 268 273 279 274 266 272 278 277 269 267 268 265 264 265 265 265 264 263 261 260 259 258 257 254 253 252 251 252 251 250 248 248 253 253 250 246 243 241 239 239 240 242 245 246 248 250 252 256 258 261 267 274 279 284 289 292 293 291 288 284 280 276 273 268 265 264 263 263 262 263 264 264 264 263 265 267 270 272 273 275 276
278 272 266 264 262 262 264 268 269 268 269 273 273 264 253 256 261 264 272 272 268 276 282 280 275 273 271 268 266 267 267 264 262 259 257 256 258 261 262 262 260 257 256 255 255 254 251 248 248 242 241 245 244 243 242 241 240 239 240 239 242 246 250 253 256 261 268 274 280 284 289 291 292 290 286 282 278 274 270 266 263 261 260 260 260 261 263 264 264 264 265 266 268 270 272 273 274
278 277 267 265 265 266 270 275 276 276 276 275 272 268 264 260 258 258 267 273 275 276 276 276 278 276 271 272 270 267 266 265 264 260 256 255 258 260 260 259 258 257 256 256 255 254 251 245 242 237 234 238 240 245 246 245 244 241 238 237 239 243 248 252 257 263 269 275 280 285 288 290 289 287 283 280 277 273 269 265 262 260 259 258 258 259 260 262 263 264 265 267 268 270 270 271 272
265 253 260 269 269 268 271 273 276 278 275 270 269 269 268 259 249 258 271 278 277 274 276 275 276 273 270 273 273 272 271 269 265 258 258 260 260 258 256 256 256 255 255 254 252 250 249 244 241 238 237 238 241 246 250 250 248 243 239 238 240 243 246 251 258 263 269 275 280 285 288 289 287 284 280 277 274 270 268 265 262 260 260 259 258 258 259 260 262 264 266 267 269 270 271 272 272
261 252 256 266 266 264 266 268 270 272 268 268 268 266 268 265 260 265 272 277 275 274 278 274 272 270 270 275 276 278 276 269 262 255 259 263 262 260 258 257 255 254 254 253 250 247 246 244 242 240 239 240 240 244 248 251 248 240 236 237 240 243 246 251 258 265 271 276 281 286 289 289 287 283 279 276 272 269 266 264 261 260 259 259 259 259 259 260 262 263 264 266 268 269 270 271 272
271 266 258 257 258 258 260 262 264 268 266 265 263 262 275 280 276 275 274 274 273 273 276 271 269 270 271 276 275 275 271 268 266 260 260 262 262 262 258 255 254 253 254 253 249 246 244 241 242 241 239 237 237 240 245 250 247 238 234 236 239 243 248 254 260 267 272 277 283 287 290 289 287 283 280 277 274 270 267 264 261 259 259 259 259 260 260 261 262 263 264 266 266 267 266 267 268
271 265 258 253 253 254 257 258 260 265 266 266 269 273 285 290 286 282 278 274 271 268 268 269 269 269 271 273 273 271 269 269 267 262 260 261 262 260 257 255 255 255 254 253 249 245 242 238 239 239 239 238 237 239 243 246 243 236 234 237 240 245 251 257 263 268 273 278 284 288 290 288 285 281 277 275 273 270 268 265 263 261 260 260 260 260 261 262 263 264 266 267 267 266 266 265 265
252 253 255 254 253 252 254 255 257 260 262 264 270 281 290 296 292 284 279 277 274 268 265 266 267 267 270 272 272 269 266 267 265 262 261 262 261 258 256 254 253 252 252 252 250 247 244 241 240 240 239 239 238 240 243 243 241 238 240 242 245 249 253 258 264 268 272 278 283 288 290 289 286 281 277 274 272 270 268 267 266 264 263 262 262 262 262 262 263 264 264 265 265 265 266 266 264
246 248 250 254 254 255 256 256 257 257 263 265 263 271 281 289 288 279 277 280 280 275 269 264 262 265 270 271 270 268 265 262 260 258 258 259 257 252 250 250 249 248 249 251 250 250 247 244 242 242 240 240 239 239 241 243 243 244 246 247 249 252 256 260 265 268 272 277 283 288 290 290 288 284 280 277 274 272 270 268 267 266 265 264 263 263 263 263 263 263 264 264 265 266 268 267 264
250 249 251 255 257 259 258 257 259 256 262 271 267 264 266 270 275 274 275 278 278 280 279 273 265 261 263 267 268 268 266 263 261 257 254 253 251 248 247 247 249 249 251 250 250 250 248 245 242 242 241 240 239 239 240 242 243 246 248 249 251 254 257 261 265 268 272 277 282 286 288 289 288 285 282 279 276 273 271 269 268 266 265 265 264 264 263 264 264 264 265 266 268 269 270 269 266
252 249 253 260 263 263 260 258 262 260 261 266 261 255 257 263 271 273 273 275 277 280 283 281 276 268 260 261 266 266 266 265 264 262 258 254 251 249 248 247 248 251 251 251 251 252 250 247 243 240 239 239 240 241 243 244 245 247 249 251 253 255 258 261 264 268 272 275 279 283 286 287 286 285 282 279 276 273 272 269 268 266 265 265 264 264 264 264 264 264 265 265 267 269 269 268 268
253 253 256 262 263 263 262 256 258 261 260 259 256 255 261 269 272 267 265 272 278 274 266 267 275 278 273 267 267 267 267 266 265 264 262 258 255 252 250 248 249 251 253 253 254 253 251 249 246 244 244 242 242 244 245 246 247 249 252 253 255 256 259 261 264 267 269 272 276 280 284 285 285 284 282 279 277 274 272 269 268 266 265 264 263 263 262 262 263 263 264 264 265 266 266 267 267
254 258 260 263 264 264 264 263 262 260 259 259 259 262 268 272 269 262 263 273 279 273 265 262 267 275 278 277 273 271 268 266 265 262 260 258 256 255 253 251 251 253 253 254 255 253 252 251 249 250 251 247 244 243 244 245 248 251 253 254 255 256 258 260 262 265 267 270 275 279 281 283 283 282 281 279 276 274 272 270 268 266 265 264 263 262 262 262 262 262 263 263 263 263 264 265 265
252 258 260 263 263 256 257 265 264 261 259 258 259 263 268 268 268 267 267 273 277 274 272 269 270 271 274 276 275 273 270 268 267 264 261 259 257 256 255 253 252 251 250 252 252 250 251 252 250 251 252 249 245 243 243 245 248 250 251 252 253 254 256 258 261 263 266 270 274 277 280 281 281 281 280 278 275 273 270 269 267 265 264 263 262 261 261 260 259 259 258 258 259 259 260 261 262
254 257 259 261 260 256 258 261 262 263 261 256 258 264 269 270 272 271 267 268 270 273 274 272 272 271 272 273 273 273 272 271 269 267 265 262 260 259 258 258 255 251 249 251 250 249 252 251 250 252 252 249 245 244 245 247 248 249 250 250 252 253 255 257 260 262 265 268 272 276 277 279 280 279 278 275 273 270 267 266 264 263 261 259 258 257 256 256 255 255 254 255 256 257 259 261 263
254 257 260 259 259 261 261 259 259 259 259 261 266 270 271 273 274 271 268 268 267 271 275 273 272 272 273 274 273 273 272 271 270 268 267 264 262 261 261 260 257 253 250 249 248 249 251 250 250 251 250 247 246 246 247 248 248 248 248 248 250 252 254 257 259 261 263 267 271 273 275 276 277 277 276 273 270 267 264 263 261 260 258 256 255 254 254 254 255 256 257 258 260 261 263 264 266
250 254 259 254 252 253 249 250 253 256 264 269 272 275 277 277 273 269 269 271 272 273 275 275 274 274 274 274 273 272 271 270 269 267 265 264 264 263 262 260 257 253 249 248 249 249 249 248 248 249 248 248 248 249 249 249 249 248 247 247 249 250 253 256 258 260 263 266 269 270 272 273 274 275 274 272 269 267 265 263 261 260 258 256 255 255 255 256 258 259 261 262 263 264 264 265 265
252 253 258 255 254 258 257 258 261 265 272 271 273 280 280 274 268 268 271 277 281 279 278 277 275 273 272 271 271 270 269 269 267 265 264 264 264 262 261 258 256 253 249 249 249 248 247 246 247 247 248 249 250 251 250 250 250 248 247 247 248 249 252 254 256 259 262 264 266 268 269 272 273 274 273 271 269 267 265 265 263 262 261 259 259 259 258 259 259 260 260 261 261 261 261 262 262
254 253 260 263 265 267 266 267 270 269 269 270 274 277 274 270 270 275 282 285 279 276 278 279 276 274 272 269 268 268 268 267 266 265 263 261 260 258 256 255 254 253 251 250 249 248 247 247 247 247 248 250 251 251 250 250 249 248 247 247 247 248 250 252 254 257 259 262 265 266 268 271 273 273 272 270 268 267 265 264 264 263 262 261 260 260 259 259 258 258 257 257 257 257 258 259 260
252 254 265 274 276 272 269 271 273 267 265 266 260 259 269 272 274 283 288 281 271 272 276 277 275 274 271 269 268 269 268 266 266 263 260 258 257 256 254 253 253 253 253 252 252 251 250 250 250 250 250 251 251 250 250 249 248 248 247 247 247 248 249 251 253 255 258 261 263 265 267 270 272 273 272 270 268 266 264 263 263 262 261 260 260 259 258 257 257 256 256 256 256 257 258 260 261
256 264 269 271 273 275 275 273 269 268 267 261 245 249 271 277 277 280 280 273 271 274 274 273 274 272 271 272 272 271 269 265 263 259 257 256 255 254 254 254 254 255 255 255 256 255 254 253 253 253 251 251 251 249 249 248 248 247 247 246 247 248 250 251 253 255 258 260 261 263 267 270 272 273 271 269 266 264 263 263 262 261 260 259 258 257 257 257 256 256 256 257 257 258 260 261 263
260 263 265 264 264 273 281 276 268 270 267 254 241 248 270 279 283 280 279 275 273 274 273 272 272 271 271 272 272 270 267 262 259 257 255 253 254 255 255 255 255 256 258 258 258 257 254 253 254 253 251 250 250 249 248 247 246 246 246 246 247 248 249 250 252 255 257 258 260 263 267 270 271 271 269 266 264 262 262 262 261 260 258 257 256 256 256 256 256 257 257 258 259 259 260 262 263
258 255 260 262 260 269 277 274 271 270 258 249 249 253 266 275 276 278 281 279 276 274 271 269 269 270 270 270 269 266 263 260 258 256 255 255 256 257 256 256 258 259 260 260 258 255 253 252 252 252 251 250 249 248 247 247 246 246 245 245 246 247 248 249 251 254 256 258 261 264 266 268 269 268 266 263 261 260 260 260 260 259 258 257 256 256 256 256 256 257 258 258 259 259 261 262 265
253 248 255 260 260 265 273 274 272 263 244 242 254 259 265 269 270 279 284 281 278 275 271 269 268 269 269 267 264 260 259 260 260 259 259 259 259 259 258 258 259 259 259 259 256 254 253 252 252 251 249 249 248 248 248 247 247 246 246 245 246 246 247 248 250 253 255 258 260 263 265 266 266 265 262 260 258 258 259 259 259 259 258 257 256 256 255 256 256 257 258 258 259 260 262 264 267
253 250 253 261 261 259 265 275 274 258 243 241 249 255 263 268 269 276 283 283 280 276 273 271 268 268 267 263 261 261 261 263 265 263 262 262 260 259 258 257 257 257 257 257 256 255 254 253 252 250 248 248 248 248 248 247 247 247 247 246 246 246 247 249 251 253 255 258 259 261 263 263 263 261 259 257 257 257 259 259 259 258 257 256 256 256 256 256 256 257 258 258 258 260 262 265 268
254 260 262 266 267 260 256 265 275 268 266 263 258 261 267 271 272 272 274 275 276 276 275 272 268 266 265 265 268 268 267 268 270 267 264 262 261 258 256 255 255 256 257 257 256 255 255 253 251 250 249 250 249 249 248 248 248 248 247 246 246 247 249 250 251 253 255 256 258 260 261 262 261 260 258 256 256 257 257 257 257 256 256 256 256 256 256 256 256 256 257 257 257 259 261 264 267
252 257 263 266 269 267 263 267 275 274 275 274 270 271 273 274 276 277 274 272 271 271 271 271 270 267 265 267 271 273 274 275 272 267 262 259 258 258 257 256 255 255 256 256 256 255 254 253 251 251 251 251 251 250 250 250 250 249 248 247 248 249 249 250 251 253 254 255 257 259 261 261 260 260 258 256 255 256 256 256 255 255 254 254 255 255 256 256 256 256 256 256 257 258 260 263 267
264 263 269 272 270 273 275 276 279 277 276 276 276 275 275 276 280 283 282 278 275 273 272 272 269 265 266 268 271 276 279 278 270 263 260 259 259 258 257 257 254 253 255 257 256 254 253 253 252 252 252 252 252 251 250 250 250 249 248 247 247 247 248 249 250 251 252 253 255 258 260 260 260 259 257 256 255 255 256 255 254 254 253 253 254 255 256 256 256 256 257 256 257 259 261 263 266
266 262 267 272 271 278 284 283 279 275 272 275 279 280 280 282 285 287 286 282 282 283 282 279 271 265 268 273 273 275 277 275 268 264 263 262 261 258 257 258 255 253 254 255 253 252 252 253 253 252 252 253 252 252 250 249 248 247 246 245 245 246 247 248 249 250 251 253 255 258 260 259 258 257 256 255 255 255 256 255 254 253 253 253 254 255 256 256 257 257 257 257 258 259 261 263 266
256 255 258 263 266 272 278 281 280 276 275 279 285 286 284 286 288 291 295 290 287 288 284 282 274 265 270 275 273 271 270 269 267 264 263 262 261 258 256 257 256 253 252 252 251 251 252 254 254 254 253 253 253 252 250 248 247 245 245 244 245 246 247 247 248 250 252 254 257 259 260 258 256 255 254 253 254 255 256 256 254 253 253 253 253 254 256 256 256 256 257 258 258 259 261 263 265
257 256 257 262 267 269 273 277 280 280 281 285 288 284 280 284 289 296 307 304 292 291 284 281 272 262 265 270 270 268 263 264 267 265 264 263 261 260 257 255 253 250 250 250 251 253 254 255 256 254 253 253 253 251 249 247 246 245 244 244 245 246 248 248 250 253 256 258 259 260 258 256 254 253 252 251 253 255 256 257 255 254 253 253 253 253 255 255 255 256 256 257 258 259 260 262 265
261 260 257 262 269 271 272 275 283 285 282 284 284 273 274 284 286 286 291 287 284 289 286 282 277 264 261 267 272 270 261 261 268 269 268 267 262 258 254 252 248 247 249 251 254 255 255 256 255 254 251 250 250 249 247 246 245 245 245 245 246 248 250 251 253 256 257 257 256 255 253 252 252 251 251 251 253 254 257 258 257 255 254 253 253 252 253 255 255 256 256 257 258 259 260 262 265
258 260 257 257 259 262 266 271 282 282 278 284 277 260 280 291 286 282 283 281 281 284 280 278 281 276 270 271 272 269 261 258 264 269 269 268 266 260 254 251 249 248 250 253 255 255 255 256 256 254 251 248 248 247 246 244 243 244 245 246 247 249 251 252 253 254 254 252 251 250 250 250 251 252 252 252 253 255 257 259 259 258 255 253 253 253 253 254 255 256 257 258 259 260 262 263 264
253 255 256 257 259 263 269 276 278 276 279 282 273 262 269 282 284 287 286 285 288 287 279 273 274 276 274 271 265 262 262 262 265 269 269 267 266 266 262 258 254 251 251 252 253 254 254 255 255 254 251 248 246 245 245 243 242 244 245 246 247 249 251 252 252 253 252 251 250 250 251 251 252 254 255 254 254 255 256 259 260 259 257 255 253 253 253 253 254 255 257 258 260 261 263 264 265
251 254 256 260 266 270 273 276 274 277 282 278 269 263 252 267 279 287 291 287 290 292 285 269 260 264 268 270 269 269 271 272 271 270 270 269 266 266 265 262 258 254 251 251 250 250 250 251 252 253 251 248 246 245 245 244 243 244 245 246 248 250 252 253 252 252 252 252 252 251 251 252 253 256 257 256 255 256 256 257 259 260 259 257 255 254 253 254 254 255 257 258 260 262 263 265 267
250 255 260 265 272 276 279 279 274 272 270 266 265 261 249 267 275 280 290 287 282 286 284 264 254 259 264 270 277 280 279 276 274 270 268 269 267 262 258 256 255 254 252 250 249 248 247 249 252 252 250 248 248 247 247 247 246 247 248 250 251 252 253 254 253 253 254 255 254 252 252 253 255 257 258 258 256 256 256 257 258 259 260 258 257 256 255 254 254 255 256 258 260 262 264 265 267
255 258 265 274 281 282 280 274 266 262 252 260 266 259 247 267 276 277 286 287 281 281 277 264 260 264 270 274 277 281 283 281 281 277 271 270 269 263 255 254 253 253 253 252 251 250 250 251 253 253 251 250 250 251 251 251 250 251 252 254 255 255 255 255 255 256 256 257 257 255 254 255 256 257 258 258 257 256 257 258 259 260 260 260 259 258 257 256 256 256 256 257 260 262 264 265 266
260 261 266 279 290 280 264 249 243 241 253 264 268 258 244 249 270 277 284 286 279 276 280 279 274 276 278 269 264 279 278 273 277 273 268 266 265 261 255 254 253 252 254 254 255 254 254 254 254 255 254 253 254 255 256 257 257 257 258 259 259 259 259 259 259 260 260 261 260 259 258 257 257 257 258 259 259 258 258 259 260 260 261 261 260 260 258 258 257 257 257 258 260 262 263 264 265
261 258 255 261 292 276 247 232 232 230 253 263 259 242 235 246 262 274 281 281 275 272 277 277 276 281 278 251 257 290 279 263 271 273 265 258 254 254 251 251 251 249 250 252 254 255 255 255 256 257 258 257 258 258 259 260 260 260 260 261 262 261 261 262 262 262 263 264 263 262 261 260 260 259 259 260 261 260 259 259 260 260 261 261 261 260 259 259 258 258 258 259 260 261 263 264 265
263 252 234 217 223 279 242 239 257 241 255 272 255 225 242 256 266 277 282 282 277 268 267 266 270 280 274 253 265 289 280 259 267 275 270 261 254 252 248 246 245 242 242 242 246 249 251 253 253 255 256 256 256 257 257 258 258 258 258 259 260 261 262 262 262 263 263 265 266 265 264 262 261 261 261 261 261 261 260 259 259 259 260 260 261 261 261 260 259 259 259 259 260 262 263 264 265
259 252 228 221 230 247 251 252 272 272 290 296 249 204 236 243 266 289 290 287 279 265 265 269 272 275 270 263 268 279 274 259 263 267 265 261 253 247 242 238 237 236 235 234 236 239 242 245 246 247 249 250 251 253 255 256 256 257 257 257 258 260 262 262 263 264 265 267 268 269 268 267 265 265 264 262 260 260 260 259 259 259 260 261 261 262 262 262 261 260 260 260 261 262 262 263 264
246 237 225 230 236 246 267 277 278 290 301 283 231 237 263 271 283 288 284 282 277 273 278 279 275 270 266 266 267 268 263 258 257 254 251 245 236 231 227 229 236 240 241 241 241 243 244 246 248 248 248 249 250 252 254 256 257 257 257 258 259 260 263 264 266 267 268 270 271 271 271 271 270 269 268 266 263 261 261 260 260 260 260 261 262 262 263 263 263 262 262 261 261 262 262 263 264
240 221 220 230 236 245 267 283 280 280 284 268 246 258 273 284 293 291 283 283 277 271 273 275 274 269 265 264 262 259 257 252 249 243 237 230 227 229 234 245 260 266 268 267 264 263 262 260 259 257 256 254 254 255 256 256 257 258 258 259 260 261 263 266 267 268 269 269 269 271 272 273 273 273 273 272 270 268 265 264 263 262 262 262 262 263 263 264 264 264 264 263 263 263 263 263 264
236 221 224 235 240 247 256 272 283 268 265 269 259 264 276 283 288 296 297 290 279 266 264 271 277 275 270 264 258 256 253 247 242 236 231 232 236 241 248 261 275 284 287 286 281 277 273 269 266 263 260 258 257 256 256 256 257 258 259 261 262 263 263 265 266 267 268 268 268 270 272 274 275 276 275 275 273 272 271 270 269 267 265 264 264 264 264 264 265 265 265 265 264 264 264 264 265
242 239 240 243 240 242 243 241 258 261 259 275 265 263 271 271 274 297 300 288 274 266 264 270 276 277 271 258 251 253 251 245 239 235 236 240 242 245 253 264 275 288 296 298 296 290 283 276 270 265 262 259 257 257 257 257 258 259 260 262 263 264 264 264 265 266 267 268 268 269 270 272 274 276 275 275 274 274 274 273 273 272 270 268 267 266 266 265 265 266 266 266 265 265 265 265 266
248 246 244 243 242 245 247 246 260 277 264 274 279 263 261 272 286 303 306 307 296 275 271 275 275 275 268 258 257 258 252 245 240 238 242 243 245 250 258 267 277 287 296 301 303 302 295 282 273 267 263 260 258 257 258 259 260 261 262 263 265 266 267 267 268 268 268 269 270 270 271 272 273 274 274 274 275 274 274 274 273 273 272 272 270 269 268 268 267 267 267 267 267 267 267 266 267
253 247 243 241 239 241 254 260 257 263 269 277 284 267 251 262 282 296 298 312 314 293 280 275 272 272 267 261 267 266 257 251 249 250 252 252 253 257 263 272 280 286 292 296 301 305 301 286 273 267 262 260 259 259 259 260 261 262 263 264 266 267 268 269 269 270 270 271 272 273 273 273 273 273 274 274 275 274 274 274 272 271 270 271 271 271 271 271 270 270 269 269 268 268 268 268 268
258 255 251 250 244 237 245 263 251 247 249 251 268 276 263 251 258 279 287 294 299 286 273 272 270 267 264 267 274 271 263 259 259 260 262 264 264 263 267 274 280 284 288 291 296 302 301 287 271 265 262 260 260 259 260 261 261 263 265 266 268 269 269 270 271 272 273 274 275 275 275 275 275 275 275 275 276 276 275 275 274 272 271 269 269 270 271 272 272 272 272 272 271 271 271 270 270